Wind_Speed
18 9 11 24 13 14 13 11 12 17 3 9 13 11 14 23 8 25 18 14 12 14 18 14 14 14 14 16 17 20 20 25 18 24 20 18 19 19 23 22 23 22 24 22
15 3 9 8 6 13 11 12 4 11 3 8 4 26 17 32 38 19 20 26 19 14 15 13 13 13 14 13 16 20 22 25 26 21 21 16 17 15 13 18 23 25 24 24
6 4 4 7 8 3 6 10 4 10 14 21 22 24 13 13 23 42 8 17 20 16 14 12 12 14 16 14 17 19 21 22 26 27 24 23 18 17 20 19 22 18 17 16
1 7 5 3 8 12 3 11 13 22 10 5 7 4 8 9 10 43 12 15 16 15 12 11 11 13 15 15 16 16 18 21 23 28 28 24 20 21 20 18 18 20 17 13
6 0 6 10 3 9 13 11 18 22 15 8 11 10 10 18 12 12 14 13 12 10 11 12 14 14 13 13 15 15 16 17 21 24 26 26 21 19 18 17 17 15 19 22
12 7 9 6 5 10 12 9 3 5 5 2 18 9 4 7 10 10 13 11 9 11 13 12 13 15 13 13 13 14 14 14 28 20 23 19 17 19 20 16 19 14 19 20
5 5 6 3 8 5 9 14 4 2 5 3 7 6 6 14 17 11 15 12 10 14 13 12 13 13 13 12 12 14 14 19 27 19 17 22 19 16 19 18 19 19 19 20
3 5 2 3 5 7 13 7 6 12 12 4 17 7 6 13 15 14 15 12 12 11 11 12 13 12 12 13 10 13 15 17 19 18 17 26 19 17 18 18 21 21 18 18
5 8 3 4 7 7 8 10 9 7 16 5 7 4 5 3 11 14 13 12 11 8 9 11 13 12 12 14 10 13 15 15 18 13 18 23 20 17 19 20 19 20 18 20
14 8 5 5 5 4 7 5 7 6 6 11 8 7 5 10 9 10 9 11 9 4 11 12 12 11 12 12 13 14 13 15 17 12 17 22 18 18 17 19 19 20 21 20
5 4 4 6 3 9 7 4 6 6 5 6 7 8 11 10 12 6 13 8 8 9 10 12 11 10 11 11 12 12 13 15 15 12 15 21 16 14 16 18 18 18 18 21
3 2 4 17 20 13 4 6 7 5 11 9 7 1 10 10 12 8 10 10 11 5 8 10 11 10 11 10 10 12 13 14 14 10 15 23 17 16 16 14 20 22 17 19
3 2 7 4 8 13 4 7 1 3 6 2 8 4 10 13 11 8 11 8 7 4 9 10 10 10 10 9 10 10 11 12 13 10 15 20 16 15 18 16 19 19 18 20
5 4 3 8 10 6 3 5 3 2 4 10 9 6 6 9 10 11 11 2 8 7 9 9 7 9 9 9 8 9 10 11 11 11 13 17 16 16 18 16 18 20 15 19
2 4 11 6 5 5 8 5 5 8 8 5 9 14 5 4 2 8 10 2 1 9 8 8 6 6 8 8 8 8 9 10 10 10 10 12 13 17 15 17 15 19 16 18
2 5 7 11 9 4 8 6 4 5 1 4 12 10 4 8 16 11 2 1 7 10 7 6 5 5 7 7 8 8 8 9 10 9 9 10 11 13 15 14 13 17 15 18
7 6 2 10 11 5 8 7 7 5 2 4 5 3 6 1 5 3 5 4 8 7 4 3 3 4 4 6 7 7 7 8 9 8 9 9 9 12 14 14 14 15 14 16
5 7 5 10 10 10 8 5 6 2 2 3 3 8 7 7 5 2 9 13 8 5 4 3 4 3 3 4 6 7 7 8 9 7 8 8 8 9 11 13 12 14 13 13
8 5 5 6 7 11 11 6 6 4 5 4 5 7 6 3 2 7 11 11 9 6 4 4 3 3 2 4 5 6 7 8 7 7 7 7 7 9 11 13 13 13 13 12
10 4 5 7 6 12 12 9 8 6 3 9 6 4 3 1 6 11 13 10 9 6 5 5 4 2 1 3 4 6 6 7 7 6 6 7 8 7 9 13 12 14 12 10
7 5 9 9 7 4 9 9 5 3 5 9 7 5 3 6 12 12 10 9 7 6 5 5 3 2 1 2 5 6 6 7 7 6 6 7 8 11 7 12 11 10 13 11
8 3 7 6 5 3 12 4 4 11 13 10 10 5 5 15 10 7 9 7 5 5 3 4 3 3 1 2 4 5 6 6 7 7 6 6 9 9 10 10 10 12 11 12
5 10 1 3 2 5 2 9 17 16 14 11 11 7 4 7 7 8 9 6 4 4 4 3 3 4 3 4 3 4 5 5 5 6 7 6 10 8 13 9 11 11 12 8
7 2 2 3 3 10 6 7 9 9 9 11 11 10 7 8 10 10 10 8 4 5 4 5 4 5 5 5 5 5 4 5 5 7 7 10 9 11 9 12 11 11 13 13
2 4 2 7 7 10 7 10 11 11 10 9 10 9 8 9 11 12 12 10 6 5 6 5 5 5 5 6 6 6 6 6 7 7 9 11 9 11 10 15 11 11 14 14
12 5 1 6 12 13 14 2 10 9 9 10 11 10 8 9 10 12 11 10 9 7 7 7 7 6 5 5 7 7 8 8 8 8 8 8 11 12 15 14 9 15 16 16
Wind_Direction
215 236 266 191 222 256 51 64 41 342 68 132 115 99 66 46 212 105 108 110 108 95 91 68 61 56 44 34 25 17 16 12 31 19 3 13 13 359 6 343 345 348 343 346
251 268 316 24 325 20 12 89 132 244 315 103 118 43 25 359 337 77 114 126 117 104 86 73 62 50 37 38 23 18 24 15 13 27 1 14 10 360 357 0 353 1 359 4
242 249 26 296 43 55 355 323 339 299 99 60 51 9 71 279 334 334 26 74 87 78 81 79 65 55 42 29 25 26 19 19 7 8 0 7 11 11 5 5 355 14 357 1
32 229 285 309 352 13 350 17 343 30 64 54 16 239 217 91 95 261 95 76 92 100 97 74 65 45 38 33 17 23 14 14 12 5 5 9 20 14 5 14 9 11 0 7
355 214 44 56 244 343 357 4 65 88 92 123 238 241 140 175 191 278 113 114 104 103 79 63 45 48 37 31 21 14 13 17 13 6 4 10 29 19 4 14 3 12 8 1
257 58 95 162 320 29 341 76 280 52 176 158 246 206 323 198 176 231 124 103 91 92 68 65 52 37 34 26 20 10 8 1 5 11 7 10 19 13 5 360 3 358 350 353
173 205 80 294 324 28 320 307 311 226 224 280 282 170 150 198 192 176 116 109 78 59 55 41 49 26 26 14 17 13 353 359 7 11 3 358 8 15 3 12 2 1 357 355
151 23 345 99 16 347 298 336 356 335 320 67 42 35 353 79 92 98 91 97 71 51 53 38 53 29 13 11 20 18 357 8 24 4 4 357 9 18 8 13 10 357 352 357
18 214 157 24 334 358 342 335 338 292 298 107 130 324 121 295 133 119 107 98 70 44 69 44 51 36 19 14 19 22 5 21 15 5 0 359 14 15 18 9 9 2 3 1
155 199 217 125 283 167 282 338 341 337 328 342 176 137 189 205 151 115 142 120 90 36 55 48 55 40 24 16 18 21 14 8 7 358 358 7 8 21 12 10 13 4 7 3
322 2 127 254 9 347 322 335 8 324 328 324 347 74 107 157 141 132 102 93 103 70 42 44 52 42 31 18 14 15 12 10 10 358 9 14 15 11 1 9 10 7 6 358
19 4 327 44 358 347 357 13 30 359 348 1 346 317 11 107 113 108 98 92 68 66 45 47 40 38 30 20 17 15 13 14 14 7 18 2 16 13 4 7 6 8 12 6
31 231 264 13 0 283 291 70 232 55 287 346 298 35 243 96 101 113 111 84 132 93 54 51 29 33 34 20 17 13 14 14 14 2 352 8 16 12 4 7 6 6 16 6
326 300 291 170 245 357 252 175 204 185 280 344 34 146 136 149 165 138 117 104 111 71 61 54 32 27 32 20 14 12 10 11 11 10 1 0 16 14 4 8 4 12 20 9
274 261 268 283 3 311 312 314 34 2 350 343 4 66 76 153 172 112 106 148 320 82 55 53 50 33 21 16 12 11 3 7 10 5 7 5 354 2 12 11 5 13 23 15
205 267 292 316 271 251 294 289 161 266 12 321 47 25 359 51 101 97 153 203 82 68 55 46 50 39 24 13 9 5 2 6 4 0 4 360 3 353 4 10 2 1 22 17
182 253 293 274 347 301 287 356 130 103 227 62 3 60 48 23 136 144 200 188 91 72 56 49 79 62 35 15 9 5 2 2 358 360 2 359 12 7 2 5 1 2 19 13
207 227 254 276 219 279 109 93 75 30 50 99 10 54 17 333 126 38 121 91 94 104 76 73 91 92 51 17 15 2 5 356 358 6 5 4 8 4 5 356 360 4 11 16
237 212 245 320 279 292 157 120 130 114 84 89 45 38 1 22 27 145 104 97 97 101 108 110 116 106 69 19 17 6 7 355 1 2 5 1 6 7 4 1 4 5 6 19
198 223 272 272 313 289 135 118 121 134 149 90 63 29 38 333 246 97 109 112 118 120 124 131 139 131 80 20 14 4 1 356 1 356 356 353 353 350 351 360 359 3 4 10
206 208 238 246 249 49 101 136 164 248 90 84 82 60 85 79 101 114 116 113 126 138 143 139 147 197 53 13 4 352 350 356 354 354 350 344 348 5 336 350 3 345 6 5
270 257 222 234 253 190 193 172 326 126 120 117 95 64 107 125 140 150 135 129 140 159 153 168 185 222 226 308 337 344 339 347 345 348 342 345 336 345 327 341 349 344 333 336
146 216 64 76 252 297 130 96 133 144 142 135 133 116 139 156 179 178 144 156 160 186 190 206 206 233 229 260 295 334 327 330 332 339 336 335 327 350 7 349 351 344 341 317
189 182 289 266 209 174 182 130 155 183 161 156 156 155 155 172 185 184 162 167 186 194 215 218 220 227 249 257 272 298 314 305 316 316 323 314 325 341 334 346 350 345 339 330
78 114 97 285 304 289 180 191 195 201 182 179 173 182 179 180 189 187 172 179 201 200 212 220 233 237 249 254 267 280 293 295 303 302 304 335 319 327 324 332 308 345 343 327
5 359 343 32 36 23 34 186 175 210 215 196 195 192 193 195 194 189 184 189 197 214 215 218 228 235 242 254 267 272 275 280 287 301 319 303 322 311 310 324 320 325 324 323
Height
1514 1515 1518 1515 1509 1503 1502 1513 1518 1517 1513 1513 1521 1526 1529 1541 1541 1534 1543 1549 1558 1563 1564 1564 1564 1564 1563 1562 1560 1557 1555 1551 1548 1546 1543 1540 1538 1535 1532 1528 1526 1523 1521 1519
1513 1516 1504 1502 1504 1506 1508 1521 1528 1522 1511 1515 1514 1556 1548 1548 1544 1542 1545 1544 1557 1564 1566 1567 1567 1567 1565 1564 1561 1559 1556 1553 1550 1548 1545 1542 1540 1537 1534 1531 1528 1525 1523 1520
1510 1510 1507 1506 1506 1513 1518 1520 1521 1519 1518 1535 1552 1573 1577 1571 1565 1568 1550 1535 1552 1563 1568 1569 1568 1568 1568 1565 1562 1560 1558 1557 1553 1550 1546 1541 1539 1537 1534 1533 1530 1528 1525 1523
1507 1505 1508 1508 1513 1511 1522 1514 1515 1521 1529 1577 1570 1586 1591 1589 1588 1569 1556 1558 1561 1564 1567 1568 1568 1569 1568 1568 1564 1562 1560 1558 1555 1551 1546 1543 1540 1539 1536 1535 1533 1530 1527 1523
1510 1506 1508 1516 1518 1516 1520 1514 1524 1535 1551 1562 1567 1564 1555 1573 1578 1565 1558 1561 1562 1565 1566 1567 1569 1569 1570 1569 1568 1564 1562 1558 1556 1553 1548 1545 1543 1541 1539 1536 1534 1531 1528 1524
1506 1505 1509 1515 1514 1515 1514 1520 1521 1532 1545 1580 1548 1562 1580 1569 1563 1560 1556 1559 1562 1562 1565 1568 1570 1570 1570 1569 1569 1566 1562 1559 1557 1554 1551 1547 1545 1543 1539 1537 1534 1531 1528 1526
1507 1510 1511 1515 1516 1516 1516 1520 1539 1557 1548 1550 1543 1562 1552 1549 1553 1550 1552 1558 1561 1563 1566 1569 1570 1572 1570 1570 1568 1568 1562 1560 1558 1555 1551 1549 1546 1543 1541 1538 1536 1533 1530 1527
1523 1543 1515 1515 1518 1525 1521 1519 1538 1563 1552 1547 1541 1565 1574 1545 1550 1553 1554 1560 1564 1566 1568 1570 1570 1572 1572 1571 1569 1568 1564 1561 1559 1556 1553 1551 1548 1545 1543 1540 1537 1535 1532 1529
1541 1534 1515 1518 1517 1519 1525 1530 1519 1533 1517 1541 1552 1575 1555 1553 1550 1552 1556 1562 1566 1567 1568 1570 1571 1573 1573 1572 1569 1568 1566 1563 1561 1557 1555 1552 1549 1547 1545 1542 1539 1536 1533 1529
1523 1534 1514 1517 1517 1517 1521 1519 1534 1527 1550 1551 1553 1570 1558 1554 1549 1551 1555 1559 1565 1566 1567 1570 1571 1572 1573 1573 1571 1569 1568 1565 1562 1559 1556 1553 1551 1548 1547 1544 1540 1538 1534 1530
1513 1522 1526 1517 1526 1527 1523 1524 1527 1529 1533 1551 1550 1551 1531 1539 1547 1551 1554 1559 1563 1565 1568 1570 1571 1573 1573 1573 1572 1569 1568 1566 1563 1559 1557 1555 1552 1550 1548 1545 1542 1538 1535 1531
1515 1521 1535 1543 1532 1523 1523 1528 1531 1551 1553 1539 1543 1587 1540 1540 1547 1552 1557 1561 1565 1568 1570 1571 1572 1573 1573 1573 1572 1570 1569 1567 1565 1560 1558 1556 1554 1551 1549 1546 1543 1539 1536 1532
1519 1528 1544 1556 1546 1533 1527 1527 1530 1533 1537 1553 1556 1559 1546 1544 1549 1555 1558 1564 1567 1568 1570 1572 1574 1574 1574 1574 1572 1571 1569 1568 1566 1564 1560 1558 1555 1553 1549 1546 1543 1540 1537 1534
1524 1526 1534 1560 1543 1528 1531 1530 1527 1534 1548 1545 1546 1549 1545 1545 1546 1551 1558 1563 1564 1567 1570 1573 1575 1576 1575 1574 1573 1572 1569 1568 1566 1565 1561 1558 1556 1554 1551 1547 1544 1541 1538 1536
1525 1536 1528 1522 1524 1525 1524 1526 1526 1535 1536 1548 1541 1546 1547 1547 1555 1554 1559 1563 1564 1566 1570 1573 1575 1576 1576 1575 1574 1572 1570 1568 1567 1565 1563 1560 1558 1555 1553 1549 1546 1542 1539 1537
1525 1534 1528 1530 1521 1525 1530 1523 1528 1530 1536 1537 1544 1549 1546 1548 1551 1557 1559 1561 1563 1567 1571 1574 1576 1576 1576 1575 1574 1572 1570 1568 1567 1565 1563 1562 1559 1556 1554 1551 1547 1544 1541 1538
1527 1531 1535 1542 1527 1527 1539 1526 1523 1531 1533 1539 1549 1547 1546 1548 1551 1555 1557 1560 1564 1568 1572 1574 1575 1576 1576 1575 1574 1572 1571 1569 1567 1565 1564 1562 1560 1558 1554 1552 1548 1545 1542 1540
1527 1530 1530 1538 1529 1554 1526 1523 1525 1531 1532 1536 1540 1544 1547 1550 1550 1553 1557 1560 1564 1568 1572 1574 1575 1575 1576 1575 1573 1572 1571 1569 1567 1565 1564 1562 1560 1558 1556 1553 1550 1546 1544 1541
1523 1525 1534 1546 1538 1527 1523 1528 1531 1534 1542 1539 1542 1545 1548 1550 1552 1555 1557 1561 1566 1569 1572 1574 1574 1575 1575 1575 1573 1572 1570 1569 1567 1565 1564 1562 1560 1559 1556 1553 1550 1548 1545 1542
1521 1522 1532 1531 1547 1554 1531 1529 1530 1533 1547 1542 1545 1547 1548 1551 1553 1556 1560 1563 1567 1570 1572 1573 1574 1575 1574 1574 1573 1572 1570 1568 1566 1565 1564 1562 1560 1558 1556 1554 1551 1549 1546 1544
1529 1530 1535 1532 1537 1531 1525 1530 1531 1546 1556 1546 1549 1551 1550 1553 1558 1561 1563 1566 1568 1570 1571 1572 1574 1575 1575 1574 1574 1573 1571 1569 1567 1565 1563 1562 1560 1557 1556 1555 1552 1549 1547 1544
1547 1538 1532 1526 1535 1550 1535 1533 1537 1542 1543 1547 1550 1552 1552 1555 1559 1562 1564 1566 1569 1571 1571 1572 1573 1572 1574 1573 1573 1572 1570 1568 1566 1565 1563 1561 1559 1558 1556 1554 1552 1549 1547 1545
1539 1535 1530 1530 1543 1533 1534 1536 1538 1541 1543 1546 1550 1552 1553 1555 1558 1561 1563 1567 1568 1570 1571 1572 1572 1571 1572 1572 1571 1570 1569 1567 1565 1564 1562 1561 1559 1557 1555 1552 1551 1548 1547 1544
1516 1520 1523 1524 1525 1530 1532 1535 1539 1542 1542 1545 1548 1550 1552 1554 1557 1559 1562 1565 1568 1569 1570 1570 1570 1570 1570 1570 1571 1569 1567 1566 1565 1563 1561 1559 1557 1555 1553 1552 1550 1548 1546 1544
1521 1523 1526 1528 1526 1526 1528 1531 1536 1540 1542 1545 1547 1550 1551 1553 1554 1557 1559 1562 1565 1567 1568 1569 1569 1569 1569 1569 1569 1569 1567 1565 1563 1562 1560 1558 1557 1554 1552 1550 1548 1547 1545 1543
1521 1521 1526 1533 1531 1532 1531 1534 1535 1539 1541 1544 1546 1549 1550 1552 1553 1555 1557 1560 1563 1564 1566 1566 1567 1567 1567 1567 1567 1566 1565 1563 1562 1560 1558 1556 1554 1553 1550 1548 1545 1544 1542 1541